{"data":{"norad_id":65522,"intl_designator":"2025-200C","name":"STARLINK-35188","alt_names":[],"object_type":"PAYLOAD","status":"ACTIVE","operator":null,"country":"US","launch_date":"2025-09-06","launch_site_code":"AFWTR","launch_vehicle":null,"mission":null,"orbit_class":"UNKNOWN","rcs_meters":null,"size_class":null,"mass_kg":null,"dimensions":null,"purposes":["comms"],"wikipedia_slug":null,"has_3d_model":false,"image_url":null,"decayed_at":null,"tle_current":{"epoch":"2026-09-20T21:39:16.266240Z","epoch_age_seconds":77220,"freshness":"FRESH","line1":"1 65522U 25200C   26263.90227160  .00006939  00000+0  21706-3 0  9990","line2":"2 65522  97.2855 330.2985 0000789 101.1918 258.9413 15.33446847 58700","mean_motion":15.33446847,"eccentricity":7.89e-5,"inclination_deg":97.2855,"raan_deg":330.2985,"arg_perigee_deg":101.1918,"mean_anomaly_deg":258.9413,"bstar":0.00021706,"rev_number":5870,"period_min":93.90609154906,"perigee_km":464.99771317894,"apogee_km":466.0776450433,"semimajor_km":6843.6746791111,"source":"CELESTRAK","updated_at":"2026-09-21T09:00:35.647883Z"}}}